Regional Weather Roundup
Issued by NWS

Home | Current Version | Previous Version | Graphics & Text | Print | Product List | Glossary On
Versions: 1 2 3 4 5 6 7 8 9 10 11 12 13 14 15 16 17 18 19 20 21 22 23 24 25 26 27 28 29 30 31 32 33 34 35 36 37 38 39 40 41 42 43 44 45 46 47 48 49 50
942
ASUS44 KJAN 161003
RWRMS

MISSISSIPPI HOURLY WEATHER ROUNDUP
NATIONAL WEATHER SERVICE JACKSON MS
500 AM CDT WED APR 16 2014

NOTE: "FAIR: INDICATES FEW OR NO CLOUDS BELOW 12,000 FEET WITH NO
SIGNIFICANT WEATHER AND/OR OBSTRUCTIONS TO VISIBILITY.

MSZ001>002-007>008-010>013-018>021-025>028-034>036-161100-
NORTHWEST MISSISSIPPI

CITY           SKY/WX    TMP DP  RH WIND       PRES   REMARKS
CLARKSDALE       N/A     37  32  81 CALM      30.25S
CLEVELAND      FAIR      37  33  85 E3        30.22F
GREENWOOD      CLEAR     35  28  75 E5        30.23F WCI  31
GREENVILLE     CLEAR     39  30  70 E6        30.22S WCI  35
GRENADA        FAIR      37  28  70 E8        30.25S WCI  31
OLIVE BRANCH   CLEAR     34  30  86 E6        30.24S WCI  29
OXFORD         FAIR      32  25  74 E5        30.25R WCI  27
TUNICA         SUNNY     34  32  93 CALM      30.25S
$$

MSZ003>006-009-014>017-022>024-029>033-037>039-161100-
NORTHEAST MISSISSIPPI

CITY           SKY/WX    TMP DP  RH WIND       PRES   REMARKS
BELMONT        FAIR      31  27  83 CALM      30.23S
COLUMBUS AFB   CLEAR     35  28  75 NE2       30.24S
CORINTH        FAIR      32  28  86 CALM      30.25S
GOLDN TRIANGLE CLEAR     36  25  64 NE5       30.26S WCI  32
STARKVILLE     FAIR      34  32  93 N3        30.24R
TUPELO         CLEAR     33  27  78 CALM      30.24S
$$

MSZ040-058-161100-
CENTRAL MISSISSIPPI

CITY           SKY/WX    TMP DP  RH WIND       PRES   REMARKS
JACKSON INTL   CLEAR     38  30  73 NE8       30.20F WCI  32
JACKSON HAWKNS CLEAR     39  29  67 NE3       30.21S
MERIDIAN KEY   CLEAR     36  29  75 NE6       30.22R WCI  31
MERIDIAN NAS   CLEAR     36  29  75 N5        30.22R WCI  32
RAYMOND        FAIR      34  30  86 MISG      30.21S
VICKSBURG      CLEAR     43  31  62 E9        30.21S
$$

MSZ059>079-161100-
SOUTH MISSISSIPPI

CITY           SKY/WX    TMP DP  RH WIND       PRES   REMARKS
BROOKHAVEN     FAIR      36  32  87 CALM      30.20R
COLUMBIA       FAIR      32  32 100 MISG      30.19S FOG
HATTIESBURG    CLEAR     37  33  85 N3        30.21R
MCCOMB         CLEAR     38  31  76 CALM      30.18S
NATCHEZ          N/A     37  30  75 E6        30.19R WCI  33
PINE BELT      CLEAR     36  28  75 N6        30.20R WCI  31
$$

MSZ080>082-161100-
COASTAL MISSISSIPPI

CITY           SKY/WX    TMP DP  RH WIND       PRES   REMARKS
BILOXI         CLEAR     41  34  76 N7        30.18R
PASCAGOULA     CLEAR     38  36  92 CALM      30.18R
GULFPORT       CLEAR     41  33  73 N5        30.18R
$$



USA.gov is the U.S. government's official web portal to all federal, state and local government web resources and services.